{"data":{"norad_id":63708,"intl_designator":"2025-087M","name":"STARLINK-33915","alt_names":[],"object_type":"PAYLOAD","status":"ACTIVE","operator":null,"country":"US","launch_date":"2025-04-28","launch_site_code":"AFWTR","launch_vehicle":null,"mission":null,"orbit_class":"UNKNOWN","rcs_meters":null,"size_class":null,"mass_kg":null,"dimensions":null,"purposes":["comms"],"wikipedia_slug":null,"has_3d_model":false,"image_url":null,"decayed_at":null,"tle_current":{"epoch":"2026-09-20T19:46:00.557184Z","epoch_age_seconds":124551,"freshness":"FRESH","line1":"1 63708U 25087M   26263.82361756  .00015660  00000+0  47352-3 0  9994","line2":"2 63708  53.1609  31.8973 0001739  70.6246 289.4945 15.34409127 79098","mean_motion":15.34409127,"eccentricity":0.0001739,"inclination_deg":53.1609,"raan_deg":31.8973,"arg_perigee_deg":70.6246,"mean_anomaly_deg":289.4945,"bstar":0.00047352,"rev_number":7909,"period_min":93.84719985441,"perigee_km":461.4864955738,"apogee_km":463.86573037449,"semimajor_km":6840.8131129741,"source":"CELESTRAK","updated_at":"2026-09-21T09:00:35.064307Z"}}}